Time,TemperatureF,DewpointF,PressureIn,WindDirection,WindDirectionDegrees,WindSpeedMPH,WindSpeedGustMPH,Humidity,HourlyPrecipIn,Conditions,Clouds,dailyrainin,SoftwareType,DateUTC
2013-03-23 00:02:00,33.0,30.0,30.34,North,360,0.0,-999.0,90,-99.99,,,-99.99,,2013-03-23 07:02:00,
2013-03-23 00:12:00,33.0,30.0,30.34,North,360,0.0,-999.0,90,-99.99,,,-99.99,,2013-03-23 07:12:00,
2013-03-23 00:22:00,33.0,30.0,30.35,North,360,0.0,-999.0,90,-99.99,,,-99.99,,2013-03-23 07:22:00,
2013-03-23 00:32:00,33.0,30.0,30.35,North,5,0.0,-999.0,90,-99.99,,,-99.99,,2013-03-23 07:32:00,
2013-03-23 00:42:00,33.0,30.0,30.35,North,5,0.0,-999.0,90,-99.99,,,-99.99,,2013-03-23 07:42:00,
2013-03-23 00:52:00,33.0,30.0,30.34,North,360,0.0,-999.0,90,-99.99,,,-99.99,,2013-03-23 07:52:00,
2013-03-23 01:02:00,32.0,30.0,30.35,North,5,0.0,-999.0,91,-99.99,,,-99.99,,2013-03-23 08:02:00,
2013-03-23 01:12:00,32.0,30.0,30.35,North,5,0.0,-999.0,91,-99.99,,,-99.99,,2013-03-23 08:12:00,
2013-03-23 01:22:00,32.0,30.0,30.35,North,5,0.0,-999.0,92,-99.99,,,-99.99,,2013-03-23 08:22:00,
2013-03-23 01:32:00,32.0,30.0,30.36,North,5,0.0,-999.0,92,-99.99,,,-99.99,,2013-03-23 08:32:00,
2013-03-23 01:42:00,32.0,30.0,30.36,North,5,0.0,-999.0,92,-99.99,,,-99.99,,2013-03-23 08:42:00,
2013-03-23 01:52:00,33.0,31.0,30.35,North,5,0.0,-999.0,92,-99.99,,,-99.99,,2013-03-23 08:52:00,
2013-03-23 02:02:00,32.0,30.0,30.35,North,5,0.0,-999.0,92,-99.99,,,-99.99,,2013-03-23 09:02:00,
2013-03-23 02:12:00,32.0,30.0,30.35,North,5,0.0,-999.0,92,-99.99,,,-99.99,,2013-03-23 09:12:00,
2013-03-23 02:21:00,32.0,30.0,30.35,North,5,0.0,-999.0,92,-99.99,,,-99.99,,2013-03-23 09:21:00,
2013-03-23 02:32:00,32.0,30.0,30.36,North,5,0.0,-999.0,92,-99.99,,,-99.99,,2013-03-23 09:32:00,
2013-03-23 02:42:00,32.0,30.0,30.36,North,5,0.0,-999.0,92,-99.99,,,-99.99,,2013-03-23 09:42:00,
2013-03-23 02:52:00,32.0,30.0,30.36,North,5,0.0,-999.0,92,-99.99,,,-99.99,,2013-03-23 09:52:00,
2013-03-23 03:03:00,32.0,30.0,30.36,North,5,0.0,-999.0,92,-99.99,,,-99.99,,2013-03-23 10:03:00,
2013-03-23 03:12:00,32.0,30.0,30.36,North,5,0.0,-999.0,92,-99.99,,,-99.99,,2013-03-23 10:12:00,
2013-03-23 03:22:00,32.0,30.0,30.36,North,360,0.0,-999.0,92,-99.99,,,-99.99,,2013-03-23 10:22:00,
2013-03-23 03:33:00,32.0,30.0,30.36,North,360,0.0,-999.0,92,-99.99,,,-99.99,,2013-03-23 10:33:00,
2013-03-23 03:42:00,32.0,30.0,30.36,North,360,0.0,-999.0,92,-99.99,,,-99.99,,2013-03-23 10:42:00,
2013-03-23 03:52:00,32.0,30.0,30.36,North,360,0.0,-999.0,92,-99.99,,,-99.99,,2013-03-23 10:52:00,
2013-03-23 04:02:00,32.0,30.0,30.36,North,5,0.0,-999.0,92,-99.99,,,-99.99,,2013-03-23 11:02:00,
2013-03-23 04:12:00,32.0,30.0,30.36,North,5,0.0,-999.0,92,-99.99,,,-99.99,,2013-03-23 11:12:00,
2013-03-23 04:22:00,32.0,30.0,30.36,North,5,0.0,-999.0,91,-99.99,,,-99.99,,2013-03-23 11:22:00,
2013-03-23 04:32:00,33.0,31.0,30.36,North,5,0.0,-999.0,91,-99.99,,,-99.99,,2013-03-23 11:32:00,
2013-03-23 04:42:00,33.0,31.0,30.36,North,5,0.0,-999.0,91,-99.99,,,-99.99,,2013-03-23 11:42:00,
2013-03-23 04:51:00,33.0,31.0,30.36,North,5,0.0,-999.0,91,-99.99,,,-99.99,,2013-03-23 11:51:00,
2013-03-23 05:02:00,33.0,30.0,30.35,North,5,0.0,-999.0,90,-99.99,,,-99.99,,2013-03-23 12:02:00,
2013-03-23 05:12:00,33.0,30.0,30.35,North,5,0.0,-999.0,90,-99.99,,,-99.99,,2013-03-23 12:12:00,
2013-03-23 05:22:00,33.0,30.0,30.36,North,360,0.0,-999.0,90,-99.99,,,-99.99,,2013-03-23 12:22:00,
2013-03-23 05:32:00,33.0,30.0,30.35,NE,55,0.0,-999.0,90,-99.99,,,-99.99,,2013-03-23 12:32:00,
2013-03-23 05:42:00,33.0,30.0,30.35,NE,55,0.0,-999.0,90,-99.99,,,-99.99,,2013-03-23 12:42:00,
2013-03-23 05:52:00,33.0,30.0,30.36,NE,55,0.0,-999.0,89,-99.99,,,-99.99,,2013-03-23 12:52:00,
2013-03-23 06:02:00,33.0,30.0,30.36,NE,55,0.0,-999.0,89,-99.99,,,-99.99,,2013-03-23 13:02:00,
2013-03-23 06:11:00,33.0,30.0,30.36,NE,55,0.0,-999.0,89,-99.99,,,-99.99,,2013-03-23 13:11:00,
2013-03-23 06:21:00,33.0,30.0,30.36,NE,55,0.0,-999.0,89,-99.99,,,-99.99,,2013-03-23 13:21:00,
2013-03-23 06:32:00,33.0,30.0,30.36,NE,55,0.0,-999.0,89,-99.99,,,-99.99,,2013-03-23 13:32:00,
2013-03-23 06:42:00,33.0,30.0,30.36,NE,55,0.0,-999.0,89,-99.99,,,-99.99,,2013-03-23 13:42:00,
2013-03-23 06:52:00,33.0,30.0,30.36,NE,55,0.0,-999.0,89,-99.99,,,-99.99,,2013-03-23 13:52:00,
2013-03-23 07:02:00,33.0,30.0,30.36,NE,55,0.0,-999.0,89,-99.99,,,-99.99,,2013-03-23 14:02:00,
2013-03-23 07:12:00,33.0,30.0,30.36,NE,55,0.0,-999.0,89,-99.99,,,-99.99,,2013-03-23 14:12:00,
2013-03-23 07:22:00,32.0,29.0,30.36,NE,55,0.0,-999.0,89,-99.99,,,-99.99,,2013-03-23 14:22:00,
2013-03-23 07:32:00,32.0,29.0,30.37,NE,55,0.0,-999.0,89,-99.99,,,-99.99,,2013-03-23 14:32:00,
2013-03-23 07:42:00,32.0,29.0,30.37,NE,55,0.0,-999.0,89,-99.99,,,-99.99,,2013-03-23 14:42:00,
2013-03-23 07:52:00,32.0,29.0,30.37,NE,55,0.0,-999.0,89,-99.99,,,-99.99,,2013-03-23 14:52:00,
2013-03-23 08:02:00,32.0,29.0,30.36,NE,55,0.0,-999.0,90,-99.99,,,-99.99,,2013-03-23 15:02:00,
2013-03-23 08:12:00,32.0,29.0,30.36,NE,55,0.0,-999.0,90,-99.99,,,-99.99,,2013-03-23 15:12:00,
2013-03-23 08:22:00,32.0,29.0,30.36,NE,55,0.0,-999.0,90,-99.99,,,-99.99,,2013-03-23 15:22:00,
2013-03-23 08:33:00,32.0,29.0,30.36,NE,55,0.0,-999.0,90,-99.99,,,-99.99,,2013-03-23 15:33:00,
2013-03-23 08:43:00,32.0,29.0,30.36,NE,55,0.0,-999.0,90,-99.99,,,-99.99,,2013-03-23 15:43:00,
2013-03-23 08:52:00,33.0,30.0,30.36,NE,55,0.0,-999.0,90,-99.99,,,-99.99,,2013-03-23 15:52:00,
2013-03-23 09:03:00,34.0,32.0,30.36,NE,55,0.0,-999.0,91,-99.99,,,-99.99,,2013-03-23 16:03:00,
2013-03-23 09:12:00,34.0,32.0,30.36,NE,55,0.0,-999.0,91,-99.99,,,-99.99,,2013-03-23 16:12:00,
2013-03-23 09:22:00,34.0,32.0,30.36,NE,55,0.0,-999.0,91,-99.99,,,-99.99,,2013-03-23 16:22:00,
2013-03-23 09:32:00,35.0,32.0,30.36,ESE,109,0.0,-999.0,88,-99.99,,,-99.99,,2013-03-23 16:32:00,
2013-03-23 09:43:00,35.0,32.0,30.36,ESE,109,0.0,-999.0,88,-99.99,,,-99.99,,2013-03-23 16:43:00,
2013-03-23 09:53:00,36.0,33.0,30.36,ESE,113,0.0,-999.0,87,-99.99,,,-99.99,,2013-03-23 16:53:00,
2013-03-23 10:02:00,36.0,32.0,30.36,ESE,113,0.0,-999.0,86,-99.99,,,-99.99,,2013-03-23 17:02:00,
2013-03-23 10:11:00,37.0,33.0,30.37,SE,144,1.0,-999.0,85,-99.99,,,-99.99,,2013-03-23 17:11:00,
2013-03-23 10:22:00,37.0,33.0,30.37,SE,144,1.0,-999.0,85,-99.99,,,-99.99,,2013-03-23 17:22:00,
2013-03-23 10:32:00,37.0,32.0,30.37,SE,144,0.0,-999.0,83,-99.99,,,-99.99,,2013-03-23 17:32:00,
2013-03-23 10:42:00,37.0,32.0,30.37,SE,144,0.0,-999.0,83,-99.99,,,-99.99,,2013-03-23 17:42:00,
2013-03-23 10:52:00,38.0,33.0,30.36,SE,144,0.0,-999.0,82,-99.99,,,-99.99,,2013-03-23 17:52:00,
2013-03-23 11:02:00,40.0,34.0,30.36,SE,144,0.0,-999.0,78,-99.99,,,-99.99,,2013-03-23 18:02:00,
2013-03-23 11:12:00,40.0,34.0,30.36,SE,144,0.0,-999.0,78,-99.99,,,-99.99,,2013-03-23 18:12:00,
2013-03-23 11:22:00,41.0,34.0,30.36,SE,144,0.0,-999.0,77,-99.99,,,-99.99,,2013-03-23 18:22:00,
2013-03-23 11:32:00,41.0,33.0,30.36,SE,144,0.0,-999.0,73,-99.99,,,-99.99,,2013-03-23 18:32:00,
2013-03-23 11:42:00,41.0,33.0,30.36,SE,144,0.0,-999.0,73,-99.99,,,-99.99,,2013-03-23 18:42:00,
2013-03-23 11:52:00,42.0,34.0,30.36,South,187,1.0,-999.0,72,-99.99,,,-99.99,,2013-03-23 18:52:00,
2013-03-23 12:02:00,43.0,34.0,30.36,South,171,1.0,-999.0,71,-99.99,,,-99.99,,2013-03-23 19:02:00,
2013-03-23 12:12:00,43.0,34.0,30.36,South,171,1.0,-999.0,71,-99.99,,,-99.99,,2013-03-23 19:12:00,
2013-03-23 12:22:00,43.0,33.0,30.35,SW,226,0.0,-999.0,68,-99.99,,,-99.99,,2013-03-23 19:22:00,
2013-03-23 12:32:00,43.0,34.0,30.35,North,355,1.0,-999.0,70,-99.99,,,-99.99,,2013-03-23 19:32:00,
2013-03-23 12:42:00,43.0,34.0,30.35,North,355,1.0,-999.0,70,-99.99,,,-99.99,,2013-03-23 19:42:00,
2013-03-23 12:52:00,43.0,34.0,30.35,SW,225,1.0,-999.0,70,-99.99,,,-99.99,,2013-03-23 19:52:00,
2013-03-23 13:02:00,44.0,35.0,30.35,WSW,239,1.0,-999.0,71,-99.99,,,-99.99,,2013-03-23 20:02:00,
2013-03-23 13:12:00,44.0,35.0,30.35,WSW,239,1.0,-999.0,71,-99.99,,,-99.99,,2013-03-23 20:12:00,
2013-03-23 13:22:00,45.0,34.0,30.34,NW,318,1.0,-999.0,65,-99.99,,,-99.99,,2013-03-23 20:22:00,
2013-03-23 13:32:00,45.0,34.0,30.33,South,186,2.0,-999.0,65,-99.99,,,-99.99,,2013-03-23 20:32:00,
2013-03-23 13:42:00,45.0,34.0,30.33,South,186,2.0,-999.0,65,-99.99,,,-99.99,,2013-03-23 20:42:00,
2013-03-23 13:52:00,46.0,35.0,30.33,NW,325,2.0,-999.0,64,-99.99,,,-99.99,,2013-03-23 20:52:00,
2013-03-23 14:22:00,47.0,33.0,30.32,South,174,2.0,-999.0,58,-99.99,,,-99.99,,2013-03-23 21:22:00,
2013-03-23 14:32:00,48.0,33.0,30.32,SSE,161,1.0,-999.0,56,-99.99,,,-99.99,,2013-03-23 21:32:00,
2013-03-23 14:43:00,48.0,33.0,30.32,SSE,161,1.0,-999.0,56,-99.99,,,-99.99,,2013-03-23 21:43:00,
2013-03-23 14:53:00,48.0,31.0,30.32,SSW,198,1.0,-999.0,52,-99.99,,,-99.99,,2013-03-23 21:53:00,
2013-03-23 15:02:00,48.0,30.0,30.32,ESE,111,1.0,-999.0,50,-99.99,,,-99.99,,2013-03-23 22:02:00,
2013-03-23 15:12:00,48.0,30.0,30.32,ESE,111,1.0,-999.0,50,-99.99,,,-99.99,,2013-03-23 22:12:00,
2013-03-23 15:22:00,48.0,31.0,30.31,SSE,161,1.0,-999.0,52,-99.99,,,-99.99,,2013-03-23 22:22:00,
2013-03-23 15:32:00,49.0,31.0,30.31,SSE,156,1.0,-999.0,50,-99.99,,,-99.99,,2013-03-23 22:32:00,
2013-03-23 15:42:00,49.0,31.0,30.31,SSE,156,1.0,-999.0,50,-99.99,,,-99.99,,2013-03-23 22:42:00,
2013-03-23 15:52:00,49.0,31.0,30.30,NW,313,1.0,-999.0,49,-99.99,,,-99.99,,2013-03-23 22:52:00,
2013-03-23 16:02:00,49.0,31.0,30.30,South,186,1.0,-999.0,50,-99.99,,,-99.99,,2013-03-23 23:02:00,
2013-03-23 16:12:00,49.0,31.0,30.30,South,186,1.0,-999.0,50,-99.99,,,-99.99,,2013-03-23 23:12:00,
2013-03-23 16:22:00,49.0,28.0,30.30,NNW,341,1.0,-999.0,44,-99.99,,,-99.99,,2013-03-23 23:22:00,
2013-03-23 16:32:00,49.0,29.0,30.30,NNW,338,1.0,-999.0,46,-99.99,,,-99.99,,2013-03-23 23:32:00,
2013-03-23 16:42:00,49.0,29.0,30.30,NNW,338,1.0,-999.0,46,-99.99,,,-99.99,,2013-03-23 23:42:00,
2013-03-23 16:52:00,49.0,29.0,30.29,SSE,168,1.0,-999.0,45,-99.99,,,-99.99,,2013-03-23 23:52:00,
2013-03-23 17:02:00,50.0,28.0,30.29,South,175,2.0,-999.0,43,-99.99,,,-99.99,,2013-03-24 00:02:00,
2013-03-23 17:12:00,50.0,28.0,30.29,South,175,2.0,-999.0,43,-99.99,,,-99.99,,2013-03-24 00:12:00,
2013-03-23 17:22:00,50.0,28.0,30.28,SW,223,1.0,-999.0,42,-99.99,,,-99.99,,2013-03-24 00:22:00,
2013-03-23 17:32:00,49.0,27.0,30.28,SSE,157,0.0,-999.0,43,-99.99,,,-99.99,,2013-03-24 00:32:00,
2013-03-23 17:41:00,49.0,27.0,30.28,SSE,157,0.0,-999.0,43,-99.99,,,-99.99,,2013-03-24 00:41:00,
2013-03-23 17:52:00,49.0,27.0,30.28,South,171,0.0,-999.0,42,-99.99,,,-99.99,,2013-03-24 00:52:00,
2013-03-23 18:02:00,49.0,27.0,30.28,South,182,1.0,-999.0,42,-99.99,,,-99.99,,2013-03-24 01:02:00,
2013-03-23 18:12:00,49.0,27.0,30.28,South,182,1.0,-999.0,42,-99.99,,,-99.99,,2013-03-24 01:12:00,
2013-03-23 18:22:00,48.0,27.0,30.27,SSE,163,1.0,-999.0,44,-99.99,,,-99.99,,2013-03-24 01:22:00,
2013-03-23 18:32:00,48.0,28.0,30.28,SSE,164,1.0,-999.0,45,-99.99,,,-99.99,,2013-03-24 01:32:00,
2013-03-23 18:41:00,48.0,28.0,30.28,SSE,164,1.0,-999.0,45,-99.99,,,-99.99,,2013-03-24 01:41:00,
2013-03-23 18:52:00,47.0,28.0,30.27,SSE,165,0.0,-999.0,48,-99.99,,,-99.99,,2013-03-24 01:52:00,
2013-03-23 19:02:00,47.0,29.0,30.27,SSE,165,0.0,-999.0,50,-99.99,,,-99.99,,2013-03-24 02:02:00,
2013-03-23 19:12:00,47.0,29.0,30.27,SSE,165,0.0,-999.0,50,-99.99,,,-99.99,,2013-03-24 02:12:00,
2013-03-23 19:21:00,46.0,31.0,30.27,SSE,164,0.0,-999.0,56,-99.99,,,-99.99,,2013-03-24 02:21:00,
2013-03-23 19:32:00,46.0,29.0,30.27,SSE,165,0.0,-999.0,52,-99.99,,,-99.99,,2013-03-24 02:32:00,
2013-03-23 19:42:00,46.0,29.0,30.27,SSE,165,0.0,-999.0,52,-99.99,,,-99.99,,2013-03-24 02:42:00,
2013-03-23 19:52:00,45.0,30.0,30.27,SSE,165,0.0,-999.0,56,-99.99,,,-99.99,,2013-03-24 02:52:00,
2013-03-23 20:02:00,44.0,30.0,30.27,SSE,165,0.0,-999.0,58,-99.99,,,-99.99,,2013-03-24 03:02:00,
2013-03-23 20:12:00,44.0,30.0,30.27,SSE,165,0.0,-999.0,58,-99.99,,,-99.99,,2013-03-24 03:12:00,
2013-03-23 20:22:00,43.0,30.0,30.27,SSE,165,0.0,-999.0,61,-99.99,,,-99.99,,2013-03-24 03:22:00,
2013-03-23 20:33:00,42.0,30.0,30.27,SSE,164,0.0,-999.0,63,-99.99,,,-99.99,,2013-03-24 03:33:00,
2013-03-23 20:42:00,42.0,30.0,30.27,SSE,164,0.0,-999.0,63,-99.99,,,-99.99,,2013-03-24 03:42:00,
2013-03-23 20:52:00,41.0,29.0,30.27,SSE,165,0.0,-999.0,63,-99.99,,,-99.99,,2013-03-24 03:52:00,
2013-03-23 21:02:00,40.0,29.0,30.27,SSE,164,0.0,-999.0,64,-99.99,,,-99.99,,2013-03-24 04:02:00,
2013-03-23 21:12:00,40.0,29.0,30.27,SSE,164,0.0,-999.0,64,-99.99,,,-99.99,,2013-03-24 04:12:00,
2013-03-23 21:22:00,40.0,30.0,30.27,SSE,165,0.0,-999.0,66,-99.99,,,-99.99,,2013-03-24 04:22:00,
2013-03-23 21:32:00,39.0,29.0,30.27,SSE,165,0.0,-999.0,66,-99.99,,,-99.99,,2013-03-24 04:32:00,
2013-03-23 21:42:00,39.0,29.0,30.27,SSE,165,0.0,-999.0,66,-99.99,,,-99.99,,2013-03-24 04:42:00,
2013-03-23 21:52:00,38.0,28.0,30.28,SSE,165,0.0,-999.0,67,-99.99,,,-99.99,,2013-03-24 04:52:00,
2013-03-23 22:02:00,38.0,28.0,30.28,SSE,164,0.0,-999.0,68,-99.99,,,-99.99,,2013-03-24 05:02:00,
2013-03-23 22:12:00,38.0,28.0,30.28,SSE,164,0.0,-999.0,68,-99.99,,,-99.99,,2013-03-24 05:12:00,
2013-03-23 22:22:00,38.0,30.0,30.28,SSE,164,0.0,-999.0,72,-99.99,,,-99.99,,2013-03-24 05:22:00,
2013-03-23 22:32:00,37.0,29.0,30.27,SSE,165,0.0,-999.0,72,-99.99,,,-99.99,,2013-03-24 05:32:00,
2013-03-23 22:42:00,37.0,29.0,30.27,SSE,165,0.0,-999.0,72,-99.99,,,-99.99,,2013-03-24 05:42:00,
2013-03-23 22:51:00,37.0,29.0,30.28,SSE,165,0.0,-999.0,74,-99.99,,,-99.99,,2013-03-24 05:51:00,
2013-03-23 23:02:00,37.0,30.0,30.28,SSE,165,0.0,-999.0,75,-99.99,,,-99.99,,2013-03-24 06:02:00,
2013-03-23 23:11:00,37.0,30.0,30.28,SSE,165,0.0,-999.0,75,-99.99,,,-99.99,,2013-03-24 06:11:00,
2013-03-23 23:21:00,36.0,29.0,30.28,SSE,165,0.0,-999.0,76,-99.99,,,-99.99,,2013-03-24 06:21:00,
2013-03-23 23:32:00,36.0,29.0,30.28,SSE,165,0.0,-999.0,77,-99.99,,,-99.99,,2013-03-24 06:32:00,
2013-03-23 23:42:00,36.0,29.0,30.28,SSE,165,0.0,-999.0,77,-99.99,,,-99.99,,2013-03-24 06:42:00,
2013-03-23 23:51:00,36.0,30.0,30.28,SSE,164,0.0,-999.0,78,-99.99,,,-99.99,,2013-03-24 06:51:00,